DB0NLS-15 Weather Reports


time (UTC)temp
F
wind
direction
speed
knots
gust
knots
rain 1hr
in
rain 24hr
in
rain mn
in
humidity
%
barometer
mb
20260505171057 64 24 0.9 3.5 0.00 0.05 0.02 71 995.4
20260505170054 64 24 0.9 3.5 0.00 0.05 0.02 70 995.3
20260505165052 64 18 1.7 3.5 0.00 0.05 0.02 69 995.4
20260505164049 64 35 1.7 5.2 0.00 0.05 0.02 69 995.4
20260505163046 64 17 1.7 3.5 0.00 0.05 0.02 68 995.6
20260505162044 65 36 2.6 6.1 0.00 0.05 0.02 68 995.6
20260505161041 65 355 2.6 6.1 0.00 0.05 0.02 68 995.6
20260505153030 64 332 2.6 5.2 0.00 0.05 0.02 72 995.9
20260505152028 63 331 2.6 3.5 0.00 0.05 0.02 73 996.1
20260505151025 63 356 3.5 7.0 0.00 0.05 0.02 72 996.0
20260505140107 66 5 2.6 6.1 0.00 0.05 0.02 67 996.4
20260505124046 67 330 3.5 7.0 0.00 0.05 0.02 64 996.8
20260505123043 66 331 3.5 7.8 0.00 0.05 0.02 65 997.0
20260505122040 65 349 3.5 7.0 0.00 0.05 0.02 66 997.0
20260505121038 66 328 4.3 7.0 0.00 0.05 0.02 65 996.9
20260505120035 65 339 2.6 7.0 0.00 0.05 0.02 65 997.0
20260505115033 65 346 2.6 7.8 0.00 0.05 0.02 67 997.1
20260505114030 66 347 1.7 3.5 0.00 0.05 0.02 67 997.2
20260505113027 65 349 2.6 6.1 0.00 0.05 0.02 68 997.0
20260505112025 65 27 2.6 6.1 0.00 0.05 0.02 66 997.2
20260505111022 65 35 3.5 7.0 0.00 0.05 0.02 64 997.2
20260505102109 63 349 2.6 3.5 0.00 0.05 0.02 78 997.4
20260505101106 62 333 1.7 3.5 0.00 0.05 0.02 78 997.5
20260505095101 62 333 1.7 5.2 0.00 0.05 0.02 79 997.7
20260505094058 62 349 1.7 3.5 0.00 0.05 0.02 79 997.6
20260505093055 62 0 0.9 1.7 0.00 0.05 0.02 79 997.6
20260505092053 62 334 2.6 5.2 0.00 0.05 0.02 78 997.7
20260505091050 62 321 1.7 3.5 0.00 0.05 0.02 78 997.8
20260505090047 62 330 2.6 3.5 0.00 0.05 0.02 78 997.8
20260505085045 62 342 1.7 3.5 0.00 0.05 0.02 76 997.8
20260505084042 62 322 1.7 3.5 0.00 0.05 0.02 77 997.9
20260505083039 62 271 0.9 1.7 0.00 0.05 0.02 77 998.0
20260505082037 62 29 0.9 1.7 0.00 0.05 0.02 78 998.0
20260505081034 60 304 0.9 3.5 0.00 0.05 0.02 82 997.9
20260505080031 60 308 1.7 3.5 0.00 0.05 0.02 84 997.8
20260505075029 59 340 0.9 3.5 0.00 0.05 0.02 86 998.0
20260505074026 59 26 0.9 1.7 0.00 0.05 0.02 86 998.0
20260505073024 58 326 1.7 3.5 0.01 0.05 0.02 86 998.0
20260505072021 58 335 0.9 3.5 0.01 0.05 0.02 85 998.2
20260505071019 58 306 0.9 1.7 0.01 0.05 0.02 83 998.4
20260505070016 59 0.0 0.0 0.01 0.05 0.02 84 998.4
20260505065113 59 0.0 0.0 0.01 0.05 0.02 84 998.2
20260505064110 58 0.0 0.0 0.01 0.05 0.02 85 998.3
20260505063107 58 218 0.9 1.7 0.00 0.04 0.01 86 998.3
20260505062105 58 325 1.7 3.5 0.00 0.04 0.01 86 998.2
20260505061102 58 351 0.0 1.7 0.00 0.04 0.01 85 998.1
20260505060100 58 338 0.9 1.7 0.00 0.04 0.01 84 998.1
20260505055057 58 0.0 0.0 0.00 0.04 0.01 84 998.3
20260505054054 58 0.0 0.0 0.00 0.04 0.01 84 998.2
20260505053052 58 317 0.9 3.5 0.00 0.04 0.01 84 998.1
20260505052049 58 319 0.9 1.7 0.00 0.04 0.01 85 997.9
20260505051046 57 45 0.0 1.7 0.00 0.04 0.01 87 997.8
20260505041019 57 135 0.0 1.7 0.00 0.04 0.01 90 998.0
20260505040016 57 0.0 0.0 0.00 0.04 0.01 90 998.1
20260505035108 57 0.0 0.0 0.00 0.04 0.01 90 998.0
20260505034105 57 0.0 0.0 0.00 0.04 0.01 90 998.0
20260505033102 57 0.0 0.0 0.00 0.04 0.01 90 998.2
20260505032055 57 0.0 0.0 0.00 0.04 0.01 90 998.3
20260505031052 57 0.0 0.0 0.00 0.04 0.01 90 998.2
20260505030043 57 0.0 0.0 0.00 0.04 0.01 89 998.4
20260505025041 56 0.0 0.0 0.00 0.04 0.01 89 998.5
20260505024038 56 0.0 0.0 0.00 0.04 0.01 89 998.8
20260505023030 56 0.0 0.0 0.00 0.04 0.01 89 998.7
20260505022027 56 0.0 0.0 0.00 0.04 0.01 89 998.8
20260505021019 56 0.0 0.0 0.00 0.04 0.01 88 998.9
20260505020016 56 0.0 0.0 0.00 0.04 0.01 88 999.0
20260505015107 56 0.0 0.0 0.00 0.04 0.01 89 998.9
20260505014105 56 0.0 0.0 0.00 0.04 0.01 89 999.0
20260505013102 56 0.0 0.0 0.00 0.04 0.01 89 999.1
20260505012054 56 0.0 0.0 0.00 0.04 0.01 88 999.3
20260505011051 56 0.0 0.0 0.00 0.04 0.01 88 999.3
20260505010042 57 135 0.9 1.7 0.00 0.04 0.01 87 999.4
20260505005040 57 0.0 0.0 0.00 0.04 0.01 87 999.4
20260505004032 58 0.0 0.0 0.00 0.04 0.01 87 999.5
20260505003029 58 0.0 0.0 0.00 0.04 0.01 86 999.6
20260505002027 58 338 0.0 1.7 0.00 0.04 0.01 86 999.7
20260505001018 58 315 0.0 1.7 0.00 0.04 0.01 88 999.8
20260505000016 58 0.0 0.0 0.00 0.04 0.01 88 999.9
20260504235108 57 0.0 0.0 0.00 0.04 0.01 88 999.9
20260504234105 57 0.0 0.0 0.00 0.04 0.01 88 999.8
20260504233102 57 0.0 0.0 0.00 0.04 0.01 87 1000.0
20260504232054 58 0.0 0.0 0.00 0.04 0.01 87 999.8
20260504231051 58 0.0 0.0 0.01 0.04 0.01 86 1000.0
20260504230043 58 158 0.0 1.7 0.01 0.04 0.01 85 999.9
20260504225040 59 0.0 0.0 0.01 0.04 0.01 84 999.9
20260504224032 59 0.0 0.0 0.01 0.04 0.01 84 1000.0
20260504223029 59 23 0.0 1.7 0.01 0.04 0.01 83 999.9
20260504222026 59 25 1.7 3.5 0.01 0.04 0.01 81 999.9
20260504221017 59 38 1.7 3.5 0.00 0.02 0.00 82 1000.3
20260504220015 58 0.0 0.0 0.00 0.02 0.00 83 1000.6
20260504215106 58 0.0 0.0 0.02 0.02 0.02 83 1000.4
20260504214104 57 0.0 0.0 0.02 0.02 0.02 83 1000.3
20260504213056 58 149 1.7 3.5 0.02 0.02 0.02 82 1000.5
20260504212053 59 294 0.0 1.7 0.02 0.02 0.02 81 1000.5
20260504211051 59 45 0.0 1.7 0.02 0.02 0.02 77 1000.3
20260504210042 60 0.0 0.0 0.02 0.02 0.02 72 1000.6
20260504205040 61 0.0 0.0 0.00 0.00 0.00 69 1000.6
20260504204032 61 0.0 0.0 0.00 0.00 0.00 70 1000.3
20260504203030 60 225 0.0 1.7 0.00 0.00 0.00 70 1000.5
20260504202027 61 203 0.9 1.7 0.00 0.00 0.00 69 1000.5
20260504201018 62 0.0 0.0 0.00 0.00 0.00 66 1000.4
20260504200016 62 0.0 0.0 0.00 0.00 0.00 66 1000.4
20260504195108 62 0.0 0.0 0.00 0.00 0.00 66 1000.4
20260504194105 62 158 0.0 1.7 0.00 0.00 0.00 66 1000.4
20260504193102 62 158 0.9 1.7 0.00 0.00 0.00 65 1000.6
20260504192055 63 225 0.0 1.7 0.00 0.00 0.00 64 1000.3
20260504191052 64 0.0 0.0 0.00 0.00 0.00 63 1000.4
20260504190044 65 0.0 0.0 0.00 0.00 0.00 61 1000.5
20260504185041 66 0.0 0.0 0.00 0.00 0.00 59 1000.4
20260504184038 67 315 0.0 1.7 0.00 0.00 0.00 57 1000.4
20260504183031 68 313 0.9 1.7 0.00 0.00 0.00 56 1000.3
20260504182028 69 332 1.7 3.5 0.00 0.00 0.00 55 1000.3
20260504181020 70 322 0.9 3.5 0.00 0.00 0.00 54 1000.3
20260504180017 70 336 1.7 3.5 0.00 0.00 0.00 54 1000.1
20260504175114 71 323 1.7 5.2 0.00 0.00 0.00 53 1000.2
20260504174107 72 310 1.7 3.5 0.00 0.00 0.00 50 1000.1
20260504173104 72 320 2.6 6.1 0.00 0.00 0.00 48 1000.1
20260504172056 72 304 3.5 6.1 0.00 0.00 0.00 48 1000.0